Regional Weather Roundup
Issued by NWS

Home | Current Version | Previous Version | Graphics & Text | Print | Product List | Glossary Off
Versions: 1 2 3 4 5 6 7 8 9 10 11 12 13 14 15 16 17 18 19 20 21 22 23 24 25 26 27 28 29 30 31 32 33 34 35 36 37 38 39 40 41 42 43 44 45 46 47 48 49 50

000
ASUS43 KMKX 230711
RWRWI

WISCONSIN REGIONAL WEATHER ROUNDUP
NATIONAL WEATHER SERVICE MILWAUKEE/SULLIVAN WI
200 AM CDT MON OCT 23 2017

NOTE: "FAIR" INDICATES FEW OR NO CLOUDS BELOW 12,000 FEET WITH NO
SIGNIFICANT WEATHER AND/OR OBSTRUCTIONS TO VISIBILITY.

WIZ001-002-006>008-014>016-023>028-230800-
NORTHWEST WISCONSIN

CITY           SKY/WX    TMP DP  RH WIND       PRES   REMARKS
SUPERIOR ARPT  CLOUDY    56  32  41 SW9G20    29.80S
ASHLAND        CLOUDY    52  38  58 S13G22    29.85F
HAYWARD        CLOUDY    52  37  56 S13       29.85F
SIREN          CLOUDY    55  32  42 S14       29.83F
CUMBERLAND     CLOUDY    46  37  71 S9        29.87F
RICE LAKE      CLOUDY    48  40  74 SE15G24   29.90F
CHETEK         CLOUDY    48  41  78 CALM      29.92R
LADYSMITH      CLOUDY    45  40  85 CALM      29.93S
EAU CLAIRE     CLOUDY    48  41  76 S10       29.90F
MENOMONIE      CLOUDY    49  41  74 SE6       29.90F
NEW RICHMOND   CLOUDY    52  36  54 S12       29.86F
OSCEOLA        CLOUDY    53  34  47 S10G16    29.87F
$$

WIZ003>005-009-010-017-018-230800-
NORTH CENTRAL WISCONSIN

CITY           SKY/WX    TMP DP  RH WIND       PRES   REMARKS
MANITOWISH WTR MOCLDY    40  40 100 S6        29.91S
ARBOR VITAE    CLEAR     42  40  95 S5        29.92F
WOODRUFF       CLEAR     42  40  95 S5        29.92F
RHINELANDER    CLEAR     41  40  96 SW7       29.94F
EAGLE RIVER    NOT AVBL
LAND O LAKES   CLEAR     37  37 100 CALM      29.95S
PHILLIPS       PTCLDY    42  40  93 S6        29.91F
TOMAHAWK       CLEAR     37  36  96 CALM      29.94F FOG
MEDFORD        CLEAR     38  37  97 S7        29.93F WCI  33
MERRILL        FOG       31  31 100 NE3       29.96F VSB 1/4
$$

WIZ029-030-035-036-043>047-230800-
CENTRAL WISCONSIN

CITY           SKY/WX    TMP DP  RH WIND       PRES   REMARKS
WAUSAU         FOG       39  39 100 S5        29.95F VSB 3/4
MOSINEE        SNOW      37  37 100 S3        29.97F VSB 1/2
MARSHFIELD     CLEAR     38  36  92 S5        29.94F WCI  34
STEVENS POINT  FOG       39  39 100 CALM      29.98F VSB 1/4
WAUPACA        FOG       44  43  97 CALM      29.99F VSB 1/4
WAUTOMA        FOG      N/A N/A N/A CALM      29.99F VSB 1/4
WISC RAPIDS    FOG       37  37 100 SE3       29.98F VSB 1/2
CAMP DOUGLAS   NOT AVBL
$$

WIZ011>013-019>022-031-037>040-048>050-230800-
NORTHEAST WISCONSIN

CITY           SKY/WX    TMP DP  RH WIND       PRES   REMARKS
ANTIGO         FOG       35  35 100 CALM      29.97F VSB 1/2
SHAWANO        FOG       45  43  95 CALM      29.98S VSB 1/4
OCONTO         CLOUDY    39  39 100 CALM      29.98S VSB 3/4
STURGEON BAY   CLOUDY    47  46  97 S3        29.98F
GREEN BAY      FOG       45  45 100 CALM      29.98S VSB 1/2
MANITOWOC      CLOUDY    49  48  97 CALM      29.99F
APPLETON       FOG       45  45 100 W8        29.97S VSB 1/2
CLINTONVILLE   FOG       43  41  93 CALM      29.98F VSB 1/4
OSHKOSH        CLOUDY    45  44  97 SW3       29.98F
$$

WIZ032>034-041-042-053>061-230800-
SOUTHWEST WISCONSIN

CITY           SKY/WX    TMP DP  RH WIND       PRES   REMARKS
LA CROSSE      CLEAR     48  44  86 SE10      29.96F
SPARTA         CLEAR     32  32 100 CALM      29.98S
VIROQUA        CLEAR     43  41  93 S6        29.97F
BOSCOBEL       FOG       42  41  96 CALM      30.00F VSB 1/4
PRAIRIE DU CHI   N/A     41  40  95 SE3       29.99F FOG
PLATTEVILLE      N/A     45  45 100 CALM      30.00F VSB 1/2
$$

WIZ056-057-062-063-064-067-068-230800-
SOUTH CENTRAL WISCONSIN

CITY           SKY/WX    TMP DP  RH WIND       PRES   REMARKS
REEDSBURG      MOCLDY    38  38 100 CALM      29.99S
BARABOO/DELLS  FOG       39  38  98 CALM      29.98F VSB<1/4
LONE ROCK      FOG       42  42 100 CALM      30.00F VSB 1/4
MINERAL POINT  CLOUDY    45  45 100 CALM      29.99F
MADISON        CLOUDY    44  44 100 CALM      29.99F FOG
MIDDLETON      CLOUDY    45  45 100 W3        30.00F
WATERTOWN      CLOUDY    47  47 100 CALM      29.99S
MONROE         CLOUDY    46  45  93 W7        29.99F
JANESVILLE     CLOUDY    48  48 100 CALM      29.98F
$$

WIZ051-052-058>065-066-070>072-230800-
SOUTHEAST WISCONSIN

CITY           SKY/WX    TMP DP  RH WIND       PRES   REMARKS
MILWAUKEE      LGT RAIN  52  50  93 NW5       30.00S
WAUKESHA       LGT RAIN  46  45  93 CALM      29.99F
MILWAUKEE/TIMM DRIZZLE   48  45  87 CALM      30.00F
RACINE         LGT RAIN  51  51 100 NW5       30.01S
BURLINGTON     CLOUDY    48  48 100 CALM      29.99F
KENOSHA        LGT RAIN  51  48  89 NW7       29.98F
FOND DU LAC    CLOUDY    47  44  90 SW3       29.99S
SHEBOYGAN      CLOUDY    49  49 100 CALM      29.98F
WEST BEND      CLOUDY    46  46 100 CALM      29.98F
JUNEAU         FOG       45  45  99 CALM      30.00S VSB 1/2
$$

LSZ147-162-230800-
LAKE SUPERIOR

STATION/POSITION TIME  TEMP    WIND        PRES    WAVE
                       AIR SEA DIR/SP/G            HT/PER
                 (UTC) (F)     (DEG/KT/KT) (MB)    (FT/S)
W MID LAKE BUOY  0650   53 51              1010.7F   3/ 5
DEVILS ISLAND    0700   55     170/ 12/ 18 1010.0F
PORT WING        0600          170/ 10/ 18 1009.8
SAXON HARBOR     0640   52     180/  4/  8 1011.2F
$$

LMZ867-665-643>646-230800-
LAKE MICHIGAN

STATION/POSITION TIME  TEMP    WIND        PRES    WAVE
                       AIR SEA DIR/SP/G            HT/PER
                 (UTC) (F)     (DEG/KT/KT) (MB)    (FT/S)
S GREEN BAY BUOY 0700   52 58  260/ 10/ 12 1014.8
N MID LAKE BUOY  0650   53 57  260/  8/  8 1015.6F   2/ 6
NORTHPORT PIER   0640   47        CALM     1014.9F
KEWAUNEE LAKESHO 0642   49     180/  2/  3 1014.4F
SHEBOYGAN LAKESH 0700   50     160/  2/  2 1015.5F
PORT WASHINGTON  0640   51     290/  3/  5 1016.6F
MILWAUKEE LAKESH 0630   51     310/  7/  8   N/A
S MID LAKE BUOY  0650   54 60  360/ 14/ 17 1014.6F   3/ 5
KENOSHA   LAKESH 0700   51     320/  7/  9 1015.2
$$

TC  - TEMPERATURE IN CELSIUS
VSB - VISIBILITY IN STATUTE MILES
WCI - WIND CHILL INDEX
HX  - HEAT INDEX





USA.gov is the U.S. government's official web portal to all federal, state and local government web resources and services.